GW2897 Weather Reports


Display with metric or nautical units.
time (UTC)temp
F
wind
direction
speed
MPH
gust
MPH
rain 1hr
in
rain 24hr
in
rain mn
in
humidity
%
barometer
mb
20260901160902 91 287 2.0 7.0 0.00 0.00 0.00 63 1019.5
20260901160003 90 303 4.0 9.0 0.00 0.00 0.00 63 1019.6
20260901155402 91 298 3.0 10.0 0.00 0.00 0.00 64 1019.6
20260901154502 91 312 1.0 5.0 0.00 0.00 0.00 63 1019.6
20260901153602 90 306 2.0 5.0 0.00 0.00 0.00 64 1019.7
20260901152703 90 191 2.0 5.0 0.00 0.00 0.00 65 1019.7
20260901151803 89 287 3.0 7.0 0.00 0.00 0.00 67 1019.7
20260901150902 89 282 4.0 8.0 0.00 0.00 0.00 67 1019.8
20260901150002 88 290 2.0 5.0 0.00 0.00 0.00 70 1019.8
20260901145424 88 303 2.0 4.0 0.00 0.00 0.00 70 1019.9
20260901144524 87 286 2.0 7.0 0.00 0.00 0.00 72 1019.9
20260901143624 87 320 2.0 7.0 0.00 0.00 0.00 73 1019.9
20260901142703 86 278 2.0 5.0 0.00 0.00 0.00 74 1019.9
20260901141803 86 281 1.0 4.0 0.00 0.00 0.00 77 1019.9
20260901140903 84 243 0.0 2.0 0.00 0.00 0.00 79 1019.7
20260901140003 83 330 0.0 2.0 0.00 0.00 0.00 82 1019.7
20260901135403 82 334 1.0 3.0 0.00 0.00 0.00 83 1019.7
20260901134503 81 297 1.0 2.0 0.00 0.00 0.00 84 1019.8
20260901133624 80 272 0.0 2.0 0.00 0.00 0.00 87 1019.9
20260901132702 80 271 1.0 3.0 0.00 0.00 0.00 87 1019.8
20260901131803 78 313 1.0 3.0 0.00 0.00 0.00 89 1019.9
20260901130924 77 342 0.0 2.0 0.00 0.00 0.00 95 1019.8
20260901130003 76 138 0.0 1.0 0.00 0.00 0.00 98 1019.8
20260901125424 75 138 0.0 1.0 0.00 0.00 0.00 98 1019.7
20260901124503 74 0 0.0 0.0 0.00 0.00 0.00 98 1019.7
20260901123603 73 0 0.0 0.0 0.00 0.00 0.00 98 1019.6
20260901122724 72 139 0.0 1.0 0.00 0.00 0.00 98 1019.6
20260901121803 72 0 0.0 0.0 0.00 0.00 0.00 98 1019.5
20260901120903 71 0 0.0 0.0 0.00 0.00 0.00 97 1019.4
20260901120003 71 139 0.0 2.0 0.00 0.00 0.00 97 1019.4
20260901115403 71 0 0.0 0.0 0.00 0.00 0.00 97 1019.4
20260901114524 70 0 0.0 0.0 0.00 0.00 0.00 97 1019.2
20260901113603 70 0 0.0 0.0 0.00 0.00 0.00 97 1019.1
20260901112703 70 120 0.0 2.0 0.00 0.00 0.00 97 1019.1
20260901111803 70 0 0.0 0.0 0.00 0.00 0.00 97 1019.0
20260901110924 70 0 0.0 0.0 0.00 0.00 0.00 97 1018.9
20260901110003 70 0 0.0 0.0 0.00 0.00 0.00 96 1018.7
20260901105403 70 0 0.0 0.0 0.00 0.00 0.00 96 1018.7
20260901104503 70 0 0.0 0.0 0.00 0.00 0.00 96 1018.8
20260901103603 70 0 0.0 0.0 0.00 0.00 0.00 97 1018.7
20260901102703 70 0 0.0 0.0 0.00 0.00 0.00 96 1018.6
20260901101803 70 0 0.0 0.0 0.00 0.00 0.00 97 1018.7
20260901100903 70 0 0.0 0.0 0.00 0.00 0.00 97 1018.4
20260901100000 70 0 0.0 0.0 0.00 0.00 0.00 96 1018.5
20260901095401 70 0 0.0 0.0 0.00 0.00 0.00 96 1018.5
20260901094521 70 0 0.0 0.0 0.00 0.00 0.00 96 1018.5
20260901093600 70 0 0.0 0.0 0.00 0.00 0.00 96 1018.6
20260901092700 70 0 0.0 0.0 0.00 0.00 0.00 96 1018.4
20260901091801 70 0 0.0 0.0 0.00 0.00 0.00 96 1018.5
20260901090900 70 0 0.0 0.0 0.00 0.00 0.00 96 1018.4
20260901090124 70 0 0.0 0.0 0.00 0.00 0.00 96 1018.3
20260901085400 70 0 0.0 0.0 0.00 0.00 0.00 96 1018.4
20260901084500 70 0 0.0 0.0 0.00 0.00 0.00 95 1018.3
20260901083600 70 0 0.0 0.0 0.00 0.00 0.00 95 1018.3
20260901082700 70 0 0.0 0.0 0.00 0.00 0.00 95 1018.4
20260901081800 70 0 0.0 0.0 0.00 0.00 0.00 95 1018.4
20260901080900 70 0 0.0 0.0 0.00 0.00 0.00 95 1018.4
20260901080000 70 0 0.0 0.0 0.00 0.00 0.00 95 1018.4
20260901075400 70 0 0.0 0.0 0.00 0.00 0.00 95 1018.4
20260901074500 71 0 0.0 0.0 0.00 0.00 0.00 95 1018.5
20260901073600 71 0 0.0 0.0 0.00 0.00 0.00 94 1018.5
20260901072700 71 0 0.0 0.0 0.00 0.00 0.00 95 1018.6
20260901071821 71 0 0.0 0.0 0.00 0.00 0.00 94 1018.6
20260901070900 71 0 0.0 0.0 0.00 0.00 0.00 94 1018.7
20260901070000 71 0 0.0 0.0 0.00 0.00 0.00 94 1018.8
20260901065400 71 0 0.0 0.0 0.00 0.00 0.00 94 1018.8
20260901064500 71 0 0.0 0.0 0.00 0.00 0.00 94 1019.0
20260901063621 71 0 0.0 0.0 0.00 0.00 0.00 93 1018.9
20260901062722 71 0 0.0 0.0 0.00 0.00 0.00 93 1018.9
20260901061800 72 0 0.0 0.0 0.00 0.00 0.00 93 1019.0
20260901060900 72 0 0.0 0.0 0.00 0.00 0.00 93 1019.0
20260901060000 72 0 0.0 0.0 0.00 0.00 0.00 92 1019.1
20260901055400 72 0 0.0 0.0 0.00 0.00 0.00 92 1019.0
20260901054500 72 0 0.0 0.0 0.00 0.00 0.00 92 1019.1
20260901053621 72 0 0.0 0.0 0.00 0.00 0.00 92 1019.1
20260901052700 72 0 0.0 0.0 0.00 0.00 0.00 92 1019.1
20260901051800 72 0 0.0 0.0 0.00 0.00 0.00 92 1019.0
20260901050900 72 0 0.0 0.0 0.00 0.00 0.00 93 1019.0
20260901050021 72 0 0.0 0.0 0.00 0.00 0.00 93 1019.2
20260901045400 72 0 0.0 0.0 0.00 0.00 0.00 93 1019.1
20260901044522 72 0 0.0 0.0 0.00 0.00 0.00 94 1018.9
20260901043601 72 0 0.0 0.0 0.00 0.00 0.00 93 1018.9
20260901042701 72 0 0.0 0.0 0.00 0.00 0.00 93 1018.8
20260901041800 72 0 0.0 0.0 0.00 0.00 0.00 93 1018.9
20260901040901 72 0 0.0 0.0 0.00 0.00 0.00 92 1019.0
20260901040001 73 0 0.0 0.0 0.00 0.00 0.00 92 1019.0
20260901035401 73 0 0.0 0.0 0.00 0.00 0.00 92 1018.9
20260901034501 73 0 0.0 0.0 0.00 0.00 0.00 91 1019.0
20260901033601 73 0 0.0 0.0 0.00 0.00 0.00 92 1018.8
20260901032701 73 0 0.0 0.0 0.00 0.00 0.00 90 1018.7
20260901031801 73 0 0.0 0.0 0.00 0.00 0.00 89 1018.7
20260901030900 74 0 0.0 0.0 0.00 0.00 0.00 90 1018.6
20260901030022 74 0 0.0 0.0 0.00 0.00 0.00 89 1018.7
20260901025401 74 0 0.0 0.0 0.00 0.00 0.00 89 1018.7
20260901024500 74 0 0.0 0.0 0.00 0.00 0.00 88 1018.7
20260901023622 74 0 0.0 0.0 0.00 0.00 0.00 88 1018.7
20260901022701 74 0 0.0 0.0 0.00 0.00 0.00 87 1018.7
20260901021801 75 0 0.0 0.0 0.00 0.00 0.00 88 1018.8
20260901020901 75 0 0.0 0.0 0.00 0.00 0.00 87 1018.7
20260901020001 75 0 0.0 0.0 0.00 0.00 0.00 86 1018.7
20260901015401 75 0 0.0 0.0 0.00 0.00 0.00 86 1018.6
20260901014501 76 0 0.0 0.0 0.00 0.00 0.00 85 1018.5
20260901013601 76 0 0.0 0.0 0.00 0.00 0.00 85 1018.4
20260901012701 77 0 0.0 0.0 0.00 0.00 0.00 86 1018.4
20260901011801 77 0 0.0 0.0 0.00 0.00 0.00 85 1018.2
20260901010922 77 0 0.0 0.0 0.00 0.00 0.00 85 1018.1
20260901010001 78 0 0.0 0.0 0.00 0.00 0.00 84 1018.0
20260901005401 78 0 0.0 0.0 0.00 0.00 0.00 83 1018.0
20260901004501 79 0 0.0 0.0 0.00 0.00 0.00 83 1017.9
20260901003622 79 0 0.0 0.0 0.00 0.00 0.00 82 1017.7
20260901002701 80 0 0.0 0.0 0.00 0.00 0.00 81 1017.6
20260901001802 81 0 0.0 0.0 0.00 0.00 0.00 80 1017.6
20260901000922 81 0 0.0 0.0 0.00 0.00 0.00 80 1017.7
20260901000022 82 0 0.0 0.0 0.00 0.00 0.00 78 1017.7
20260831235402 83 0 0.0 0.0 0.00 0.00 0.00 77 1017.7
20260831234501 84 0 0.0 0.0 0.00 0.00 0.00 76 1017.6
20260831233601 85 0 0.0 0.0 0.00 0.00 0.00 74 1017.5
20260831232701 86 0 0.0 0.0 0.00 0.00 0.00 72 1017.6
20260831231801 88 104 0.0 1.0 0.00 0.00 0.00 68 1017.6
20260831230922 90 121 0.0 1.0 0.00 0.00 0.00 66 1017.7
20260831230001 92 118 0.0 1.0 0.00 0.00 0.00 65 1017.7
20260831225401 93 119 0.0 1.0 0.00 0.00 0.00 62 1017.7
20260831224522 94 114 0.0 5.0 0.00 0.00 0.00 60 1017.7
20260831223601 94 94 1.0 2.0 0.00 0.00 0.00 57 1017.7
20260831222702 95 143 0.0 3.0 0.00 0.00 0.00 59 1017.6
20260831221801 96 104 0.0 2.0 0.00 0.00 0.00 56 1017.6
20260831220901 96 119 0.0 2.0 0.00 0.00 0.00 55 1017.7
20260831220002 96 297 0.0 2.0 0.00 0.00 0.00 55 1017.7
20260831215402 96 299 0.0 2.0 0.00 0.00 0.00 55 1017.8
20260831214501 95 127 1.0 4.0 0.00 0.00 0.00 56 1017.8
20260831213602 94 117 1.0 4.0 0.00 0.00 0.00 56 1017.9
20260831212701 94 159 1.0 4.0 0.00 0.00 0.00 56 1017.9
20260831211802 93 128 1.0 6.0 0.00 0.00 0.00 55 1017.8
20260831210923 93 114 0.0 4.0 0.00 0.00 0.00 56 1017.8
20260831210002 94 106 1.0 2.0 0.00 0.00 0.00 55 1017.8
20260831205401 94 42 1.0 4.0 0.00 0.00 0.00 56 1017.8
20260831204502 95 108 1.0 6.0 0.00 0.00 0.00 53 1018.0
20260831203601 95 127 1.0 5.0 0.00 0.00 0.00 55 1018.0
20260831202723 93 154 1.0 4.0 0.00 0.00 0.00 56 1018.1
20260831201802 92 331 1.0 3.0 0.00 0.00 0.00 61 1018.2
20260831200923 94 80 1.0 5.0 0.00 0.00 0.00 57 1018.4
20260831200002 95 143 2.0 6.0 0.00 0.00 0.00 57 1018.3
20260831195402 94 143 1.0 4.0 0.00 0.00 0.00 55 1018.3
20260831194502 94 76 1.0 4.0 0.00 0.00 0.00 57 1018.4
20260831193602 93 311 1.0 5.0 0.00 0.00 0.00 59 1018.5
20260831192702 94 123 3.0 9.0 0.00 0.00 0.00 56 1018.6
20260831191802 94 106 3.0 6.0 0.00 0.00 0.00 57 1018.7
20260831190902 95 117 3.0 7.0 0.00 0.00 0.00 58 1018.9
20260831190002 96 93 2.0 5.0 0.00 0.00 0.00 56 1018.9
20260831185402 95 85 2.0 6.0 0.00 0.00 0.00 56 1019.1
20260831184502 94 72 2.0 6.0 0.00 0.00 0.00 60 1019.3
20260831183623 94 130 2.0 6.0 0.00 0.00 0.00 59 1019.4
20260831182723 94 134 2.0 7.0 0.00 0.00 0.00 58 1019.3
20260831181823 94 132 2.0 6.0 0.00 0.00 0.00 59 1019.5
20260831180902 93 192 1.0 3.0 0.00 0.00 0.00 58 1019.7
20260831180002 92 48 2.0 6.0 0.00 0.00 0.00 60 1019.8
20260831175423 93 358 2.0 7.0 0.00 0.00 0.00 60 1019.8
20260831174523 93 102 3.0 7.0 0.00 0.00 0.00 61 1019.9
20260831173602 93 110 2.0 6.0 0.00 0.00 0.00 60 1019.8
20260831172702 92 168 1.0 4.0 0.00 0.00 0.00 61 1019.8
20260831171823 92 90 1.0 3.0 0.00 0.00 0.00 64 1019.9
20260831170902 91 192 1.0 4.0 0.00 0.00 0.00 64 1020.0
20260831170002 92 88 1.0 5.0 0.00 0.00 0.00 64 1020.1
20260831165402 92 43 0.0 3.0 0.00 0.00 0.00 64 1020.1
20260831164502 91 148 1.0 5.0 0.00 0.00 0.00 65 1020.2
20260831163602 90 129 2.0 5.0 0.00 0.00 0.00 63 1020.2
20260831162702 91 115 2.0 8.0 0.00 0.00 0.00 68 1020.3